This is the latest recevied weather packets stored in our database for station/object KC2GYU. If no packets are shown the sender has not sent any weather packets the latest 10 day(s).
| Time | Temp. | Humidity | Pressure | Rain* | Wind** | Luminosity | Snow |
|---|---|---|---|---|---|---|---|
| 1777734069 | 13.33° C | 75% | 1012.9 hPa | 0 mm | - | 141 W/m² | - |
| 1777733766 | 13.33° C | 76% | 1012.7 hPa | 0 mm | - | 111 W/m² | - |
| 1777733463 | 13.33° C | 75% | 1012.9 hPa | 0 mm | - | 101 W/m² | - |
| 1777733158 | 13.89° C | 74% | 1012.6 hPa | 0 mm | - | 118 W/m² | - |
| 1777732855 | 13.89° C | 74% | 1012.7 hPa | 0 mm | - | 137 W/m² | - |
| 1777732552 | 13.89° C | 74% | 1012.8 hPa | 0 mm | - | 157 W/m² | - |
| 1777732250 | 13.89° C | 74% | 1012.7 hPa | 0 mm | - | 182 W/m² | - |
| 1777731947 | 13.89° C | 74% | 1012.6 hPa | 0 mm | - | 210 W/m² | - |
| 1777731643 | 13.89° C | 75% | 1012.7 hPa | 0 mm | - | 216 W/m² | - |
| 1777731341 | 13.89° C | 75% | 1012.8 hPa | 0 mm | - | 210 W/m² | - |
| 1777731038 | 13.89° C | 76% | 1013 hPa | 0 mm | - | 177 W/m² | - |
| 1777730737 | 13.89° C | 75% | 1013.1 hPa | 0 mm | - | 204 W/m² | - |
| 1777730433 | 13.89° C | 75% | 1013.1 hPa | 0 mm | - | 221 W/m² | - |
| 1777730128 | 13.89° C | 76% | 1012.9 hPa | 0 mm | - | 257 W/m² | - |
| 1777729825 | 13.33° C | 76% | 1013.2 hPa | 0 mm | - | 237 W/m² | - |
| 1777729522 | 13.33° C | 76% | 1012.8 hPa | 0 mm | - | 207 W/m² | - |
| 1777729219 | 13.33° C | 78% | 1012.8 hPa | 0 mm | - | 252 W/m² | - |
| 1777728916 | 13.33° C | 78% | 1013.2 hPa | 0 mm | - | 225 W/m² | - |
| 1777728613 | 13.33° C | 79% | 1012.9 hPa | 0 mm | - | 196 W/m² | - |
| 1777728310 | 13.33° C | 79% | 1013 hPa | 0 mm | - | 215 W/m² | - |
| 1777728007 | 13.33° C | 79% | 1013.2 hPa | 0 mm | - | 251 W/m² | - |
| 1777727704 | 12.78° C | 81% | 1013 hPa | 0 mm | - | 231 W/m² | - |
| 1777727400 | 12.78° C | 81% | 1013.1 hPa | 0 mm | - | 218 W/m² | - |
| 1777727098 | 12.78° C | 82% | 1013 hPa | 0 mm | - | 185 W/m² | - |
| 1777726796 | 12.78° C | 82% | 1013 hPa | 0 mm | - | 189 W/m² | - |
* Rain latest hour (hover to see other rain measurements)
** Current wind speed in m/s (hover to see current wind gust speed)